San Carlos, CA

7:11 AM PDT on August 22, 2017 (GMT -0700)
San Carlos

Weather History for KSQL - November, 2012

Change the Weather History Date:

Monday, November 26, 2012

  Actual Average Record
Temperature  
Mean Temperature 53 °F -  
Max Temperature 62 °F 62 °F 77 °F (1959)
Min Temperature 44 °F 40 °F 33 °F (1952)
Degree Days  
Heating Degree Days 12    
Growing Degree Days 3 (Base 50)    
Moisture  
Dew Point 48 °F    
Average Humidity 92    
Maximum Humidity 100    
Minimum Humidity 68    
Precipitation  
Precipitation 0.00 in - - ()
Sea Level Pressure  
Sea Level Pressure 30.04 in    
Wind  
Wind Speed 1 mph (North)    
Max Wind Speed 8 mph    
Max Gust Speed -    
Visibility 6 miles    
Events Fog    
Averages and records for this station are not official NWS values.
T = Trace of Precipitation, MM = Missing Value Source: NWS Daily Summary

Daily Weather History Graph

Daily Weather History Graph

Search for Another Location

Airport or City:

Trip Planner

Search our weather history database for the weather conditions in past years. The results will help you decide how hot, cold, wet, or windy it might be!

Date:

Astronomy

Nov. 26, 2012 Rise Set
Actual Time 7:00 AM PST 4:52 PM PST
Civil Twilight 6:32 AM PST 5:20 PM PST
Nautical Twilight 5:59 AM PST 5:52 PM PST
Astronomical Twilight 5:28 AM PST 6:24 PM PST
Moon 3:47 PM PST (11/26) 5:17 AM PST (11/26)
Length of Visible Light 10h 48m
Length of Day
9h 51m
Waxing Gibbous, 97% of the Moon is Illuminated
Nov 26
Waxing Gibbous
Nov 28
Full
Dec 6
Last Quarter
Dec 13
New
Dec 19
First Quarter

Hourly Weather History & Observations

Time (PST) Temp. Dew Point Humidity Pressure Visibility Wind Dir Wind Speed Gust Speed Precip Events Conditions
12:10 AM 48.2 °F 46.4 °F 93% 29.99 in 9.0 mi Calm Calm - N/A   Clear
12:30 AM 48.2 °F 46.4 °F 93% 29.99 in 8.0 mi Calm Calm - N/A   Clear
12:50 AM 48.2 °F 46.4 °F 93% 29.99 in 8.0 mi Calm Calm - N/A   Clear
1:10 AM 46.4 °F 44.6 °F 93% 29.99 in 9.0 mi Calm Calm - N/A   Clear
1:30 AM 46.4 °F 44.6 °F 93% 29.99 in 8.0 mi Calm Calm - N/A   Partly Cloudy
1:50 AM 46.4 °F 44.6 °F 93% 29.99 in 10.0 mi Calm Calm - N/A   Mostly Cloudy
2:10 AM 46.4 °F 44.6 °F 93% 30.00 in 10.0 mi Calm Calm - N/A   Overcast
2:30 AM 46.4 °F 44.6 °F 93% 30.00 in 8.0 mi Calm Calm - N/A   Mostly Cloudy
2:50 AM 46.4 °F 44.6 °F 93% 30.00 in 9.0 mi Calm Calm - N/A   Partly Cloudy
3:10 AM 46.4 °F 44.6 °F 93% 30.00 in 7.0 mi Calm Calm - N/A   Mostly Cloudy
3:30 AM 44.6 °F 44.6 °F 100% 30.00 in 7.0 mi Calm Calm - N/A   Overcast
3:50 AM 44.6 °F 44.6 °F 100% 30.01 in 7.0 mi Calm Calm - N/A   Overcast
4:10 AM 46.4 °F 44.6 °F 93% 30.01 in 6.0 mi Calm Calm - N/A   Overcast
4:30 AM 46.4 °F 44.6 °F 93% 30.02 in 4.0 mi Calm Calm - N/A   Overcast
4:50 AM 48.2 °F 46.4 °F 93% 30.02 in 0.2 mi Calm Calm - N/A Fog Fog
5:10 AM 48.2 °F 48.2 °F 100% 30.02 in 0.2 mi Calm Calm - N/A Fog Fog
5:30 AM 48.2 °F 48.2 °F 100% 30.02 in 0.2 mi Calm Calm - N/A Fog Fog
5:50 AM 48.2 °F 48.2 °F 100% 30.03 in 0.2 mi Calm Calm - N/A Fog Fog
6:10 AM 48.2 °F 48.2 °F 100% 30.03 in 0.2 mi Calm Calm - N/A Fog Fog
6:30 AM 48.2 °F 48.2 °F 100% 30.03 in 0.2 mi Calm Calm - N/A Fog Fog
6:50 AM 48.2 °F 48.2 °F 100% 30.04 in 0.2 mi Calm Calm - N/A Fog Fog
6:52 AM 48.2 °F 48.2 °F 100% 30.04 in 0.2 mi Calm Calm - N/A Fog Fog
7:48 AM 48.2 °F 48.2 °F 100% 30.05 in 0.2 mi Calm Calm - N/A Fog Fog
9:55 AM 48.2 °F 48.2 °F 100% 30.07 in 1.0 mi Calm Calm - N/A   Overcast
10:15 AM 50.0 °F 50.0 °F 100% 30.07 in 2.0 mi North 3.5 mph - N/A   Mostly Cloudy
10:27 AM 50.0 °F 50.0 °F 100% 30.07 in 3.0 mi NNE 3.5 mph - N/A   Mostly Cloudy
10:55 AM 51.8 °F 50.0 °F 94% 30.07 in 4.0 mi NNE 3.5 mph - N/A   Mostly Cloudy
11:10 AM 53.6 °F 50.0 °F 88% 30.06 in 4.0 mi North 5.8 mph - N/A   Partly Cloudy
11:49 AM 55.4 °F 50.0 °F 82% 30.05 in 9.0 mi North 6.9 mph - N/A   Clear
12:57 PM 55.4 °F 50.0 °F 82% 30.03 in 6.0 mi NNW 5.8 mph - N/A   Haze
1:56 PM 62.6 °F 51.8 °F 68% 30.02 in 6.0 mi NNW 5.8 mph - N/A   Haze
2:47 PM 60.8 °F 53.6 °F 77% 30.02 in 9.0 mi North 8.1 mph - N/A   Partly Cloudy
3:53 PM 59.0 °F 51.8 °F 77% 30.02 in 10.0 mi North 5.8 mph - N/A   Scattered Clouds
4:47 PM 57.2 °F 50.0 °F 77% 30.02 in 10.0 mi West 3.5 mph - N/A   Mostly Cloudy
5:47 PM 55.4 °F 50.0 °F 82% 30.04 in 10.0 mi Calm Calm - N/A   Partly Cloudy
6:47 PM 53.6 °F 48.2 °F 82% 30.05 in 10.0 mi Calm Calm - N/A   Clear
7:47 PM 51.8 °F 48.2 °F 88% 30.06 in 10.0 mi Calm Calm - N/A   Clear
8:47 PM 50.0 °F 48.2 °F 94% 30.08 in 10.0 mi Calm Calm - N/A   Clear
9:10 PM 50.0 °F 48.2 °F 94% 30.07 in 10.0 mi Calm Calm - N/A   Clear
9:30 PM 50.0 °F 48.2 °F 94% 30.08 in 10.0 mi Calm Calm - N/A   Clear
9:50 PM 50.0 °F 48.2 °F 94% 30.08 in 10.0 mi Calm Calm - N/A   Mostly Cloudy
10:10 PM 50.0 °F 48.2 °F 94% 30.08 in 10.0 mi Calm Calm - N/A   Overcast
10:30 PM 50.0 °F 48.2 °F 94% 30.09 in 10.0 mi Calm Calm - N/A   Overcast
10:50 PM 50.0 °F 48.2 °F 94% 30.09 in 10.0 mi SSW 3.5 mph - N/A   Overcast
11:10 PM 51.8 °F 48.2 °F 88% 30.09 in 10.0 mi SSE 3.5 mph - N/A   Overcast
11:30 PM 51.8 °F 50.0 °F 94% 30.08 in 8.0 mi SE 4.6 mph - N/A   Overcast
11:50 PM 51.8 °F 50.0 °F 94% 30.09 in 7.0 mi SSE 4.6 mph - N/A   Overcast